Location: Alsip
(41.6689°N, 87.7387°W)
Time: 14:24:48
(UTC+00:00)

Meteor 1-10 Rocket - Pass Details

Date: 14 July 2020
Orbit: 835 x 911 km, 81.3° (Epoch: 05 August)

Event Time Altitude Azimuth Distance (km) Brightness Sun altitude
Rises 05:33:58 0° 350° (N) 3,397 8.7 -26.5°
Reaches altitude 10° 05:36:23 10° 350° (N) 2,456 7.6 -26.6°
Maximum altitude 05:41:56 89° 74° (ENE) 842 4.0 -26.6°
Enters shadow 05:42:14 81° 166° (SSE) 851 4.0 -26.6°
